This demonstration page uses our WeatherBlox Daily Observations layout. Learn more.

Left ArrowRight Arrow

53.62937, 11.41316

Hourly Observations for November 16, 2022

Temp ( °F °C ) Dew Point ( °F °C ) Humidity (%) Winds ( mph kmh ) Pressure ( in mb ) Visibility ( mi km ) Precip ( " mm )
12:20 am 00:20 Cloudy 45 7 43 6 93 93 E 9 15 29.74 1007 4 7 0.00 0.00
12:50 am 00:50 Cloudy 45 7 43 6 93 93 E 7 11 29.74 1007 4 7 0.00 0.00
1:20 am 01:20 Cloudy 45 7 43 6 93 93 E 8 13 29.74 1007 5 8 0.00 0.00
1:50 am 01:50 Cloudy 45 7 43 6 93 93 ESE 7 11 29.74 1007 5 8 0.00 0.00
2:20 am 02:20 Cloudy 45 7 43 6 93 93 E 9 15 29.74 1007 6 9 0.00 0.00
2:50 am 02:50 Cloudy 43 6 43 6 100 100 E 10 17 29.71 1006 6 9 0.00 0.00
3:20 am 03:20 Cloudy 43 6 41 5 93 93 ESE 9 15 29.71 1006 5 8 0.00 0.00
3:50 am 03:50 Cloudy 43 6 43 6 100 100 ESE 10 17 29.68 1005 4 6 0.00 0.00
4:20 am 04:20 Cloudy 43 6 43 6 100 100 E 12 19 29.68 1005 4 6 0.00 0.00
4:50 am 04:50 Cloudy 43 6 43 6 100 100 ESE 13 20 29.68 1005 4 6 0.00 0.00
5:20 am 05:20 Cloudy 43 6 43 6 100 100 ESE 12 19 29.68 1005 4 6 0.00 0.00
5:50 am 05:50 Cloudy 43 6 43 6 100 100 ESE 12 19 29.71 1006 3 5 0.00 0.00
6:20 am 06:20 Mostly Cloudy with Mist and Fog 43 6 43 6 100 100 ESE 13 20 29.71 1006 3 5 0.00 0.00
6:50 am 06:50 Mostly Cloudy with Mist and Fog 43 6 43 6 100 100 ESE 8 13 29.71 1006 3 5 0.00 0.00
7:20 am 07:20 Mostly Cloudy 43 6 43 6 100 100 ESE 12 19 29.71 1006 4 6 0.00 0.00
7:50 am 07:50 Cloudy 43 6 43 6 100 100 ESE 10 17 29.71 1006 4 6 0.00 0.00
8:20 am 08:20 Cloudy 43 6 43 6 100 100 ESE 13 20 29.71 1006 4 7 0.00 0.00
8:50 am 08:50 Cloudy with Mist and Fog 43 6 43 6 100 100 ESE 13 20 29.71 1006 3 5 0.00 0.00
9:20 am 09:20 Cloudy with Mist and Fog 43 6 43 6 100 100 ESE 13 20 29.68 1005 3 5 0.00 0.00
9:50 am 09:50 Cloudy 45 7 43 6 93 93 ESE 12 19 29.68 1005 4 6 0.00 0.00
10:20 am 10:20 Cloudy 45 7 43 6 93 93 ESE 10 17 29.68 1005 5 8 0.00 0.00
10:50 am 10:50 Cloudy 45 7 43 6 93 93 ESE 9 15 29.71 1006 6 9 0.00 0.00
11:20 am 11:20 Cloudy 45 7 43 6 93 93 ESE 10 17 29.71 1006 6 10 0.00 0.00
11:50 am 11:50 Cloudy 45 7 43 6 93 93 ESE 12 19 29.71 1006 6 10 0.00 0.00
12:20 pm 12:20 Cloudy 45 7 43 6 93 93 SE 9 15 29.71 1006 6 10 0.00 0.00
12:50 pm 12:50 Cloudy 45 7 43 6 93 93 ESE 7 11 29.71 1006 6 10 0.00 0.00
1:20 pm 13:20 Cloudy 45 7 41 5 87 87 ESE 8 13 29.71 1006 6 10 0.00 0.00
1:50 pm 13:50 Cloudy 45 7 41 5 87 87 ESE 7 11 29.71 1006 6 10 0.00 0.00
2:20 pm 14:20 Cloudy with Light Rain 45 7 41 5 87 87 ESE 8 13 29.71 1006 6 10 0.00 0.00
2:50 pm 14:50 Cloudy with Light Rain 45 7 41 5 87 87 ESE 7 11 29.71 1006 6 10 0.00 0.00
3:20 pm 15:20 Cloudy with Light Rain 45 7 41 5 87 87 ESE 9 15 29.71 1006 6 10 0.00 0.00
3:50 pm 15:50 Cloudy 45 7 41 5 87 87 ESE 12 19 29.71 1006 6 10 0.00 0.00
4:20 pm 16:20 Cloudy 43 6 41 5 93 93 ESE 8 13 29.71 1006 6 10 0.00 0.00
4:50 pm 16:50 Cloudy with Light Rain 43 6 41 5 93 93 ESE 8 13 29.71 1006 4 6 0.00 0.00
5:20 pm 17:20 Cloudy 43 6 41 5 93 93 E 8 13 29.71 1006 6 10 0.00 0.00
5:50 pm 17:50 Cloudy 45 7 39 4 81 81 ESE 10 17 29.71 1006 6 10 0.00 0.00
6:20 pm 18:20 Cloudy 45 7 39 4 81 81 ESE 9 15 29.71 1006 6 10 0.00 0.00
6:50 pm 18:50 Cloudy 45 7 39 4 81 81 E 10 17 29.71 1006 6 10 0.00 0.00
7:20 pm 19:20 Cloudy 45 7 37 3 76 76 ESE 12 19 29.71 1006 6 10 0.00 0.00
7:50 pm 19:50 Cloudy 43 6 36 2 75 75 ESE 10 17 29.71 1006 6 10 0.00 0.00
8:20 pm 20:20 Cloudy 43 6 36 2 75 75 E 12 19 29.71 1006 6 10 0.00 0.00
8:50 pm 20:50 Cloudy 43 6 36 2 75 75 E 13 20 29.71 1006 6 10 0.00 0.00
9:20 pm 21:20 Cloudy 43 6 36 2 75 75 ESE 10 17 29.71 1006 6 10 0.00 0.00
9:50 pm 21:50 Cloudy 43 6 34 1 70 70 E 12 19 29.71 1006 6 10 0.00 0.00
10:20 pm 22:20 Cloudy 41 5 34 1 75 75 E 13 20 29.71 1006 6 10 0.00 0.00
10:50 pm 22:50 Cloudy 41 5 34 1 75 75 E 14 22 29.68 1005 6 10 0.00 0.00
11:20 pm 23:20 Cloudy 41 5 32 0 70 70 E 14 22 29.68 1005 6 10 0.00 0.00
11:50 pm 23:50 Cloudy 41 5 32 0 70 70 E 12 19 29.68 1005 6 10 0.00 0.00

Powered by AerisWeather